DELTA 1 DEB, 40766

Orbit data source: Space-Track

DELTA 1 DEB, 40766 is space debris in SSO originally from a launch on Thu, 29 Jul 1976 UTC launched from the Air Force Western Test Range (AFWTR). Debris objects in space refer to the collection of defunct objects orbiting the Earth. Examples of debris include non-operational satellites, rocket bodies, and fragments generated from explosions, collisions, or faulty payload assembly.

Loading next visibility...
Identifier
40766, 1976-077GK
Orbit
SSO
Country
Flag of USUS
Related business
Manufacturer
Unknown
Mission
Spacecraft
Bus & Motor
Unknown
Mass
Unknown
Launch date (UTC)
1976-07-29 (50 years ago)
Launch vehicle
Unknown
Launch site
Air Force Western Test Range (AFWTR)
Object type
Payload
Rocket body
Debris
Shape & HBR
Unknown shape, 0.1 m
Radar Cross Section
Small (<0.1 m²)

Expand to show TLE details & history
Last TLE update: 21 hours ago

TLE from 21 hours ago
0 DELTA 1 DEB
1 40766U 76077GK  26129.96104493 -.00000049  00000-0 -48695-4 0  9997
2 40766 102.1406  31.4607 0101488 276.1826 144.7693 12.23252472116286
Epoch: 2026-05-09T23:03Z
TLE epoch observation values (Epoch: 2026-05-09T23:03:54.281Z)
Latitude
59.41807°
Longitude
156.47402°
Altitude
1,654.512 km
Speed
7.022 km/s
True Right ascension
00h 40m 53s
True Declination
59° 17' 03"
Sunlit
Object was in daylight at epoch
Visualization orbit readout
Latitude
Unknown
Longitude
Unknown
Altitude
Unknown
Speed
Unknown
Apparent Right ascension
Unknown
Apparent Declination
Unknown
Sunlit
N/A
Visualization observer readout
Local Sidereal Time
03:49:38
Azimuth
Unknown
Elevation
Unknown
Doppler factor
Unknown
Orbital elements
Apogee altitude
1,656.736 km
Perigee altitude
1,495.286 km
Semi-major axis
7,954.148 km
Eccentricity
0.01015
Inclination
102.1406°
RAAN
31.4607°
Arg. of periapsis
276.1826°
True anomaly
145.43328°
Mean anomaly
144.7693°
Eccentric anomaly
145.10198°
Mean motion
3.05952 °/min
Orbital period
117.67 mins
BSTAR
-0.000048695
Loading maneuver chart data...
Computing Atmospheric mass density...
Loading historical data...
Loading historical data...
Loading historical data...
Loading historical data...
Loading historical data...
Loading historical data...
Loading historical data...

Documentation

Showing up to 5 results
|